Weather History for Clarinda, IA

Change the Weather History Date:

Tuesday, February 5, 2013

  Actual Average Record
Temperature  
Mean Temperature 36 °F -  
Max Temperature 48 °F 36 °F 64 °F (1999)
Min Temperature 23 °F 17 °F -2 °F (2014)
Degree Days  
Heating Degree Days 30    
Moisture  
Dew Point 27 °F    
Average Humidity 76    
Maximum Humidity 100    
Minimum Humidity 53    
Precipitation  
Precipitation 0.03 in - - ()
Sea Level Pressure  
Sea Level Pressure 29.99 in    
Wind  
Wind Speed 5 mph (WNW)    
Max Wind Speed 15 mph    
Max Gust Speed 22 mph    
Visibility 10 miles    
Events      
Averages and records for this station are not official NWS values.
T = Trace of Precipitation, MM = Missing Value Source: NWS Daily Summary

Daily Weather History Graph

Daily Weather History Graph

Search for Another Location

Airport:

Trip Planner

Search our weather history database for the weather conditions in past years. The results will help you decide how hot, cold, wet, or windy it might be!

Date:

Astronomy

Feb. 05, 2013 Rise Set
Actual Time 7:25 AM CST 5:43 PM CST
Civil Twilight 6:57 AM CST 6:11 PM CST
Nautical Twilight 6:24 AM CST 6:44 PM CST
Astronomical Twilight 5:52 AM CST 7:16 PM CST
Moon 3:09 AM CST (2/5) 1:00 PM CST (2/5)
Length of Visible Light 11h 14m
Length of Day
10h 17m
Waning Crescent, 26% of the Moon is Illuminated
Feb 5
Waning Crescent
Feb 10
New
Feb 17
First Quarter
Feb 25
Full
Mar 4
Last Quarter

Hourly Weather History & Observations

Time (CST) Temp. Windchill Dew Point Humidity Pressure Visibility Wind Dir Wind Speed Gust Speed Precip Events Conditions
12:16 AM 23.0 °F 15.8 °F 19.4 °F 86% 29.90 in 10.0 mi South 5.8 mph - N/A   Clear
1:17 AM 23.0 °F - 19.4 °F 86% 29.90 in 10.0 mi Calm Calm - N/A   Mostly Cloudy
1:36 AM 24.8 °F - 19.4 °F 80% 29.90 in 10.0 mi Calm Calm - N/A   Overcast
1:59 AM 24.8 °F - 19.4 °F 80% 29.90 in 10.0 mi Calm Calm - N/A   Mostly Cloudy
2:17 AM 24.8 °F 20.5 °F 19.4 °F 80% 29.90 in 10.0 mi South 3.5 mph - N/A   Mostly Cloudy
3:16 AM 24.8 °F 19.1 °F 19.4 °F 80% 29.88 in 10.0 mi SSW 4.6 mph - N/A   Mostly Cloudy
5:16 AM 24.8 °F 16.1 °F 19.4 °F 80% 29.85 in 10.0 mi SSW 8.1 mph - N/A   Clear
6:19 AM 24.8 °F 20.5 °F 19.4 °F 80% 29.86 in 7.0 mi South 3.5 mph - N/A   Clear
8:38 AM 28.4 °F 23.3 °F 21.2 °F 74% 29.89 in 7.0 mi South 4.6 mph - N/A   Clear
8:58 AM 30.2 °F 25.4 °F 24.8 °F 80% 29.90 in 7.0 mi SW 4.6 mph - N/A   Clear
9:17 AM 32.0 °F 28.7 °F 24.8 °F 75% 29.90 in 10.0 mi WSW 3.5 mph - N/A   Clear
9:36 AM 33.8 °F 29.6 °F 26.6 °F 75% 29.91 in 10.0 mi West 4.6 mph - N/A   Clear
9:58 AM 37.4 °F 30.8 °F 26.6 °F 65% 29.92 in 10.0 mi West 9.2 mph - N/A   Clear
10:38 AM 41.0 °F 34.3 °F 28.4 °F 61% 29.93 in 10.0 mi WNW 11.5 mph 16.1 mph N/A   Clear
10:55 AM 42.8 °F 35.8 °F 28.4 °F 57% 29.93 in 10.0 mi WNW 13.8 mph 18.4 mph N/A   Clear
11:15 AM 42.8 °F 36.2 °F 28.4 °F 57% 29.94 in 10.0 mi NW 12.7 mph - N/A   Clear
11:35 AM 44.6 °F 39.7 °F 30.2 °F 57% 29.95 in 10.0 mi NW 9.2 mph 17.3 mph N/A   Clear
11:55 AM 44.6 °F 38.4 °F 30.2 °F 57% 29.96 in 10.0 mi NW 12.7 mph 21.9 mph N/A   Clear
12:15 PM 46.4 °F 40.4 °F 30.2 °F 53% 29.96 in 10.0 mi WNW 13.8 mph 18.4 mph N/A   Clear
12:35 PM 48.2 °F - 32.0 °F 54% 29.96 in - NW 8.1 mph - 0.03 in   Clear
12:55 PM 46.4 °F 40.4 °F 33.8 °F 62% 29.96 in 10.0 mi NW 13.8 mph 19.6 mph N/A   Unknown
1:15 PM 46.4 °F 40.7 °F 33.8 °F 62% 29.96 in 10.0 mi NW 12.7 mph 19.6 mph N/A   Clear
1:35 PM 46.4 °F 41.9 °F 33.8 °F 62% 29.97 in 10.0 mi NW 9.2 mph 20.7 mph N/A   Clear
1:55 PM 46.4 °F 40.7 °F 33.8 °F 62% 29.97 in 10.0 mi NW 12.7 mph 19.6 mph N/A   Clear
2:15 PM 46.4 °F 41.9 °F 33.8 °F 62% 29.97 in 10.0 mi NW 9.2 mph - N/A   Clear
2:35 PM 46.4 °F 41.1 °F 32.0 °F 57% 29.97 in 10.0 mi NNW 11.5 mph - N/A   Clear
2:55 PM 46.4 °F 40.7 °F 33.8 °F 62% 29.97 in 10.0 mi NW 12.7 mph 16.1 mph N/A   Clear
3:15 PM 46.4 °F 40.7 °F 32.0 °F 57% 29.99 in 10.0 mi NNW 12.7 mph - N/A   Clear
3:35 PM 46.4 °F 40.1 °F 32.0 °F 57% 29.99 in 10.0 mi NW 15.0 mph - N/A   Clear
3:55 PM 46.4 °F 41.1 °F 30.2 °F 53% 30.00 in 10.0 mi NW 11.5 mph - N/A   Clear
4:15 PM 46.4 °F 41.9 °F 30.2 °F 53% 30.00 in 10.0 mi NW 9.2 mph - N/A   Clear
4:35 PM 46.4 °F 42.9 °F 30.2 °F 53% 30.00 in 10.0 mi NW 6.9 mph - N/A   Clear
4:55 PM 44.6 °F 40.7 °F 30.2 °F 57% 30.01 in 10.0 mi North 6.9 mph - N/A   Clear
5:15 PM 42.8 °F - 30.2 °F 61% 30.02 in 10.0 mi Calm Calm - N/A   Clear
5:35 PM 39.2 °F - 28.4 °F 65% 30.02 in 10.0 mi Calm Calm - N/A   Clear
5:55 PM 35.6 °F 32.8 °F 28.4 °F 75% 30.02 in 10.0 mi North 3.5 mph - N/A   Clear
6:15 PM 33.8 °F - 28.4 °F 81% 30.03 in 10.0 mi Calm Calm - N/A   Clear
6:35 PM 32.0 °F - 28.4 °F 87% 30.03 in 10.0 mi Calm Calm - N/A   Clear
6:55 PM 30.2 °F - 28.4 °F 93% 30.04 in 10.0 mi Calm Calm - N/A   Clear
7:15 PM 28.4 °F - 26.6 °F 93% 30.05 in 10.0 mi Calm Calm - N/A   Clear
7:35 PM 28.4 °F - 26.6 °F 93% 30.06 in 10.0 mi Calm Calm - N/A   Clear
7:55 PM 26.6 °F - 26.6 °F 100% 30.06 in 10.0 mi Calm Calm - N/A   Clear
8:15 PM 26.6 °F - 24.8 °F 93% 30.06 in 10.0 mi Calm Calm - N/A   Clear
8:35 PM 26.6 °F - 26.6 °F 100% 30.06 in 10.0 mi Calm Calm - N/A   Clear
8:55 PM 26.6 °F - 24.8 °F 93% 30.07 in 10.0 mi Calm Calm - N/A   Clear
9:15 PM 24.8 °F - 24.8 °F 100% 30.07 in 10.0 mi Calm Calm - N/A   Clear
9:35 PM 24.8 °F - 24.8 °F 100% 30.07 in 10.0 mi Calm Calm - N/A   Clear
9:55 PM 24.8 °F - 24.8 °F 100% 30.08 in 10.0 mi Calm Calm - N/A   Clear
10:15 PM 24.8 °F - 23.0 °F 93% 30.08 in 10.0 mi Calm Calm - N/A   Clear
10:35 PM 24.8 °F - 24.8 °F 100% 30.09 in 10.0 mi Calm Calm - N/A   Clear
10:55 PM 24.8 °F - 24.8 °F 100% 30.08 in 10.0 mi Calm Calm - N/A   Clear
11:15 PM 24.8 °F 19.1 °F 24.8 °F 100% 30.08 in 10.0 mi North 4.6 mph - N/A   Clear
11:35 PM 24.8 °F - 24.8 °F 100% 30.09 in 10.0 mi Calm Calm - N/A   Clear
11:55 PM 24.8 °F - 23.0 °F 93% 30.10 in 10.0 mi Calm Calm - N/A   Clear